Theta_e
310 310 310 310 310 310 309 309 309 310 310 311 312 313 314 314 314 321 333 342 334 325 323 325 324 324 322 322 315 321 317 318 318 312 309 307 307 311 310 312 310 307 305 304 304 299 296 309 308 302 306 306 304 304
310 310 310 310 310 309 309 308 309 309 310 310 312 313 314 314 314 315 332 336 336 328 325 330 326 327 328 326 326 324 321 319 320 314 315 316 310 314 312 305 312 307 311 308 306 305 311 311 309 309 307 305 305 306
310 310 310 309 310 309 308 308 308 309 310 310 311 312 314 314 314 316 334 336 333 325 325 326 323 327 329 327 331 323 325 325 326 327 321 318 311 315 308 310 311 311 312 310 307 308 307 308 309 309 307 307 308 308
309 310 309 310 309 309 308 308 308 309 309 310 311 312 313 313 313 314 334 334 333 328 320 319 327 322 327 333 331 330 328 328 329 325 322 318 312 315 314 313 312 314 312 308 306 308 308 308 309 309 308 309 308 309
309 309 309 309 309 308 308 308 308 308 309 310 312 312 313 313 312 324 331 331 333 327 316 318 326 325 327 328 327 329 330 326 322 319 318 315 317 315 317 315 311 314 312 307 305 311 309 309 311 309 307 308 309 308
309 309 309 309 309 308 307 307 308 309 309 311 312 312 312 312 311 332 327 329 329 332 322 314 324 323 324 325 324 324 324 323 323 319 316 317 315 316 311 308 311 315 315 314 311 313 311 311 310 309 309 309 309 308
308 309 309 309 308 307 307 308 308 309 309 310 310 311 311 311 327 325 322 324 316 333 322 314 315 323 324 323 324 323 325 322 321 319 318 319 316 314 312 306 311 315 315 313 314 312 308 308 308 310 310 309 308 308
308 309 309 308 307 307 307 308 308 309 309 309 310 311 312 310 313 323 327 318 321 330 326 316 314 317 325 319 318 325 320 321 320 318 319 318 316 316 308 312 313 313 312 311 312 311 310 311 310 309 310 309 306 304
308 309 308 307 307 306 307 308 308 309 309 309 310 312 323 326 325 326 316 318 334 327 317 318 311 309 325 321 322 321 322 315 322 318 318 317 315 310 312 313 312 311 310 310 311 310 310 308 307 308 308 307 305 302
308 308 308 307 307 307 307 308 308 308 309 311 324 320 319 325 315 320 325 322 324 325 324 316 320 314 319 318 317 318 320 314 311 315 320 314 314 318 316 316 315 313 312 311 307 306 307 306 306 306 307 307 304 303
308 308 307 307 307 307 307 308 308 308 316 330 324 320 326 318 326 323 316 314 316 314 318 318 318 315 323 314 313 319 314 313 308 312 312 312 309 315 315 315 316 315 313 312 311 311 310 308 307 307 307 305 303 304
308 307 306 306 306 307 308 307 307 323 323 318 318 320 325 322 318 310 311 315 313 309 315 314 315 318 321 324 317 318 310 313 303 319 311 304 313 316 314 314 315 316 314 312 311 310 310 310 309 308 306 304 304 305
306 306 306 306 306 307 307 308 308 309 309 325 321 316 315 314 304 304 302 308 310 313 314 315 315 317 319 319 317 314 306 306 319 309 305 310 317 317 316 315 315 315 314 313 311 311 311 310 309 307 305 305 305 306
305 305 305 305 306 307 307 307 308 314 323 317 311 299 308 306 308 309 310 311 314 314 313 314 315 315 318 313 314 305 312 314 304 301 303 312 318 318 317 316 315 314 314 312 311 311 310 310 309 307 307 307 306 306
305 305 305 307 306 306 307 307 309 325 321 312 312 301 307 312 314 314 315 315 316 315 314 312 314 315 313 309 312 308 305 302 304 304 311 315 320 319 318 316 316 316 315 313 313 312 311 310 309 308 308 309 309 308
304 305 311 306 306 306 306 316 324 325 319 314 311 308 312 311 311 314 312 311 315 314 316 316 311 308 307 308 305 303 302 300 306 312 314 318 319 319 319 318 318 317 317 316 316 312 310 311 310 309 309 309 309 309
304 312 306 306 305 306 308 324 323 314 313 309 308 313 311 311 310 311 313 313 316 314 311 313 304 304 311 307 304 309 306 310 314 315 317 321 321 321 321 319 319 319 318 318 316 315 313 312 311 309 308 309 310 311
313 313 308 306 307 315 326 323 318 314 307 311 310 309 314 314 313 314 315 316 314 313 314 309 314 307 305 301 305 310 313 315 319 318 319 321 322 321 320 319 318 318 317 317 316 315 313 312 310 309 311 311 310 311
310 309 305 305 308 317 316 317 320 309 310 314 315 315 315 315 316 316 316 319 318 319 315 314 306 305 306 310 309 310 311 314 314 316 318 321 322 320 320 319 318 318 317 317 316 314 313 314 312 312 312 312 310 310
304 304 304 305 308 317 310 315 321 314 310 313 316 314 314 314 315 316 317 317 316 315 310 308 308 309 309 312 315 314 314 316 314 311 311 313 317 318 317 317 316 318 317 317 317 306 315 314 315 314 312 311 311 311
309 311 310 316 320 316 315 315 313 314 315 313 315 313 313 316 315 315 314 315 313 312 310 314 312 315 319 318 319 319 318 317 314 314 313 311 314 315 314 313 313 313 314 315 315 315 307 313 314 314 314 314 314 314
313 306 317 318 313 311 313 315 313 316 314 314 313 313 312 310 311 312 314 311 311 313 315 317 317 318 316 315 317 318 317 317 318 315 305 307 311 310 310 311 311 311 312 313 316 316 315 315 316 315 315 315 311 315
308 311 315 313 307 305 305 316 310 312 306 308 312 307 309 311 313 315 309 312 314 317 319 319 318 318 316 316 317 318 318 317 314 313 313 311 311 311 311 311 312 312 311 311 313 313 313 305 311 312 314 314 314 314
303 309 305 305 307 303 311 308 312 310 310 308 306 302 306 310 313 309 305 310 313 318 318 318 318 315 316 317 314 314 315 315 313 313 313 310 309 309 310 311 312 312 312 313 313 313 312 311 304 311 312 312 313 312
302 301 304 295 309 304 302 303 304 305 301 303 302 303 307 312 305 303 303 309 313 315 315 317 315 313 311 312 312 313 316 314 311 310 312 311 311 311 311 311 311 313 313 311 310 310 310 310 310 310 310 310 310 311
296 302 301 304 305 303 303 300 301 302 303 301 303 308 311 306 300 299 307 312 313 313 312 311 310 310 309 310 309 310 312 315 314 312 313 313 313 311 310 309 309 311 315 313 312 311 311 311 310 310 309 308 298 308
298 301 308 311 309 308 306 308 308 305 301 301 304 303 303 297 298 306 313 316 313 314 315 314 313 312 311 311 313 314 315 315 314 313 314 314 313 313 310 308 307 308 309 310 310 309 309 309 308 308 308 309 310 310
305 305 301 305 306 308 302 303 301 300 304 308 305 299 298 299 301 310 313 315 314 314 314 315 315 314 313 313 312 311 311 311 312 312 312 311 310 309 309 310 310 294 308 309 308 308 308 307 307 307 307 307 308 309
303 308 307 301 302 304 304 303 303 308 310 306 302 300 301 306 312 311 312 312 313 312 311 310 310 312 312 310 310 309 309 308 306 304 304 304 305 306 309 308 308 308 308 308 295 296 304 304 305 306 306 307 307 308
303 309 303 301 299 300 306 308 305 309 309 307 307 306 305 307 311 312 311 311 310 309 309 309 309 308 307 307 307 307 308 308 307 304 301 301 303 305 305 305 305 306 305 304 303 303 294 299 299 301 300 300 300 299
308 307 302 302 300 305 307 308 308 308 308 307 307 304 303 306 309 310 310 311 310 309 309 307 307 308 306 306 304 303 302 307 307 305 303 303 303 303 302 302 303 304 303 302 301 301 300 299 299 298 298 298 298 296
306 302 301 298 301 307 307 306 304 303 304 303 302 304 306 304 302 307 309 311 308 306 296 303 304 305 307 308 307 307 292 306 307 305 303 302 301 301 300 300 301 301 301 300 300 299 299 298 297 297 296 295 295 295
303 304 303 301 301 300 304 302 301 300 301 300 301 304 305 303 301 305 309 310 307 305 304 305 305 306 306 304 306 306 298 305 299 290 289 287 286 290 296 299 299 299 299 299 298 298 296 296 295 295 294 294 294 295
Wind_Speed
11 13 14 16 17 18 19 19 19 20 20 20 19 18 15 11 10 5 3 0 4 4 6 7 6 3 2 1 2 6 6 5 4 6 5 5 5 1 5 3 3 5 5 4 2 5 5 7 7 6 7 4 4 3
11 13 14 16 17 19 20 20 20 20 20 19 19 18 15 12 9 5 1 1 1 3 5 4 4 5 6 6 3 4 3 1 2 3 2 2 5 2 6 6 4 4 4 5 5 7 6 4 4 7 4 6 4 0
12 14 15 17 18 19 20 21 20 20 20 20 19 17 16 13 10 5 2 2 4 6 6 3 3 4 3 3 1 3 3 2 3 4 0 1 5 3 5 2 3 3 4 2 5 7 7 7 7 6 3 2 1 3
12 14 16 18 19 20 21 21 21 21 20 19 18 15 13 13 13 8 2 3 3 1 2 6 1 4 6 4 1 3 1 4 3 4 1 2 2 2 1 5 7 4 7 4 2 6 7 7 6 5 4 2 4 3
12 15 16 18 19 21 22 21 22 21 20 19 17 15 12 10 10 5 4 4 4 5 3 6 5 4 7 6 7 6 5 2 2 2 1 2 2 4 1 3 5 6 3 4 4 8 5 6 9 5 3 2 2 4
13 15 17 19 20 21 22 22 23 22 21 20 17 14 12 9 6 5 4 3 6 3 2 2 4 2 3 4 6 6 4 2 2 2 3 2 2 4 4 2 5 5 4 3 3 7 3 7 6 3 1 2 2 3
14 16 18 19 21 22 23 23 23 23 21 20 16 13 10 7 4 3 5 4 6 4 1 3 4 3 2 1 2 2 2 3 3 2 1 2 3 4 3 3 7 6 5 4 6 8 7 7 5 4 4 4 2 2
14 17 18 20 21 22 23 23 23 23 22 19 14 10 6 5 8 2 5 5 5 1 2 0 3 4 3 1 2 1 1 2 2 2 3 1 4 3 3 5 7 8 7 8 9 3 2 6 6 5 3 3 3 5
15 17 19 20 21 22 23 23 24 24 22 17 11 6 4 2 1 4 7 8 2 4 2 2 4 4 1 1 1 3 2 1 1 1 2 4 3 3 4 8 10 10 9 8 8 5 6 7 5 4 4 3 6 5
16 18 20 21 22 22 22 22 25 24 21 12 3 3 2 3 5 5 4 3 2 2 2 3 1 2 4 1 2 3 2 3 2 4 1 4 1 4 2 6 9 10 6 8 8 7 7 5 5 4 5 5 6 5
17 19 21 21 22 21 20 21 24 23 7 2 3 3 4 1 4 1 2 2 2 3 3 3 4 4 3 5 4 3 4 2 3 4 4 1 2 6 3 8 8 9 8 8 5 4 5 4 5 5 5 4 5 5
18 19 21 21 21 19 19 19 19 6 4 4 3 3 3 2 3 2 2 1 3 4 3 5 5 4 1 3 4 1 1 3 3 2 3 2 5 7 4 8 8 8 8 7 5 4 5 5 5 3 4 5 5 5
19 20 21 20 19 17 18 16 11 6 5 4 2 3 4 2 6 1 2 2 2 3 5 5 2 3 3 3 2 2 2 1 0 3 3 5 7 3 5 6 8 8 7 7 8 7 6 6 5 4 4 5 5 6
20 21 21 18 15 17 17 15 9 2 4 3 3 6 3 2 3 4 4 4 4 4 6 6 4 3 2 3 2 4 2 3 3 1 4 5 6 4 6 6 7 8 8 8 7 7 7 8 6 5 6 5 6 6
22 23 20 10 16 18 18 13 6 3 3 3 2 3 4 3 3 3 3 2 2 4 5 6 4 3 1 3 1 2 3 1 4 5 4 6 6 5 3 6 7 6 7 7 7 7 8 8 7 6 7 7 8 8
23 21 4 15 20 21 16 7 3 2 2 2 3 3 3 3 3 1 3 4 4 5 3 4 3 4 1 3 1 4 6 5 4 5 6 6 7 6 5 5 6 6 7 7 7 7 8 8 7 7 7 8 9 10
19 4 13 17 22 21 7 3 2 4 3 1 3 3 3 2 3 3 3 5 4 5 2 2 2 5 2 1 3 5 4 6 6 5 5 6 6 6 5 5 6 6 7 8 8 8 8 7 7 7 9 11 9 10
4 9 14 17 15 7 2 4 1 2 3 2 1 4 2 2 1 2 3 3 4 4 3 4 3 2 3 3 4 4 4 5 3 4 4 5 5 5 5 7 7 7 8 7 7 8 9 8 6 9 11 11 10 11
11 14 18 15 7 4 4 3 4 2 4 2 2 0 2 1 0 2 3 2 2 2 3 2 2 3 3 4 4 4 5 5 5 5 4 3 5 6 7 8 9 9 9 8 8 7 7 9 9 9 9 9 10 10
12 10 10 8 2 3 1 3 2 1 1 3 1 1 2 2 2 2 1 2 2 2 2 1 3 4 4 4 3 3 4 3 4 5 6 6 4 6 8 9 9 11 9 8 9 6 8 8 7 7 9 10 11 12
7 7 8 3 2 3 3 2 2 3 2 1 2 3 1 1 1 1 2 3 3 2 2 2 4 5 3 2 1 1 1 3 5 5 7 8 8 7 7 8 9 8 9 7 7 6 4 9 9 10 12 13 10 11
4 7 3 2 2 2 2 2 3 2 3 2 1 2 1 1 2 3 3 2 2 3 3 1 2 1 2 3 2 4 5 6 6 6 6 5 8 8 9 8 7 9 9 9 5 7 6 6 7 9 10 11 9 11
6 2 2 2 1 3 0 2 2 1 1 2 1 2 1 0 3 2 1 2 2 2 2 1 2 3 5 4 5 7 7 7 7 6 7 8 8 8 7 8 8 7 8 8 6 7 7 7 9 9 11 10 10 11
4 3 4 3 2 1 1 0 1 1 1 1 1 1 1 3 3 2 1 2 4 2 1 1 2 4 4 6 7 6 6 5 6 7 7 8 7 8 8 7 7 7 7 7 9 7 8 10 11 11 11 11 11 11
2 4 2 4 0 2 2 2 2 1 2 3 3 0 2 2 3 2 0 3 3 3 3 1 3 5 6 7 8 8 7 5 7 8 8 8 7 7 9 10 10 11 9 7 8 10 10 9 9 11 12 13 14 16
3 2 3 3 1 3 3 2 3 4 3 3 1 2 2 3 4 1 2 2 2 3 5 6 8 8 8 9 10 8 8 7 6 7 9 9 10 10 11 11 10 10 11 13 14 14 14 14 13 16 14 16 12 13
2 3 2 1 2 2 2 0 1 2 2 3 3 4 3 3 2 2 2 1 3 5 6 6 6 7 8 8 7 6 6 6 7 8 9 8 7 10 10 9 12 12 13 14 13 14 15 16 16 16 16 15 16 17
2 3 2 3 1 1 4 3 2 2 1 2 4 4 4 3 4 5 5 5 6 7 7 6 4 6 6 6 6 7 7 7 6 8 5 7 7 7 9 8 8 10 9 10 11 12 12 14 15 16 17 17 15 14
0 1 2 1 1 2 1 2 2 2 2 3 4 7 6 6 4 5 5 6 5 5 5 6 6 5 4 7 6 7 8 9 12 15 14 10 11 10 10 10 10 11 10 12 10 8 10 12 13 12 13 13 13 13
2 2 3 2 3 2 1 2 4 3 3 5 6 8 9 6 4 3 3 4 5 5 5 5 6 7 6 6 5 6 7 8 8 9 9 9 10 10 11 12 12 12 12 12 12 13 11 13 12 11 11 10 9 10
1 2 3 2 3 3 4 4 5 5 7 8 8 8 9 3 4 4 5 4 4 4 4 5 6 7 7 7 7 7 7 7 6 5 7 7 8 9 10 11 10 10 10 12 12 12 13 14 13 15 15 17 18 15
2 2 3 5 6 3 4 3 6 9 10 9 8 7 2 4 4 3 3 2 4 6 6 7 7 7 7 7 4 4 2 8 7 7 10 8 9 11 11 11 10 11 13 14 14 15 16 17 15 17 16 20 20 20
3 3 4 3 3 5 5 5 8 8 6 7 5 1 1 3 4 4 3 5 5 5 5 5 6 6 7 9 8 7 7 9 10 5 4 5 5 6 10 11 11 14 17 16 16 17 17 20 18 22 21 21 20 21
Wind_Direction
346 335 333 333 336 330 334 336 339 334 335 331 335 333 326 344 352 297 67 66 312 73 60 28 12 49 80 322 215 118 168 196 208 252 278 280 278 159 260 351 277 265 270 241 271 270 232 143 155 256 74 117 147 162
336 335 335 332 328 330 333 336 334 333 329 332 333 326 327 341 345 308 106 89 287 36 85 51 66 25 29 10 310 186 21 210 227 240 224 294 233 205 291 258 177 244 324 350 337 30 109 157 73 116 131 148 153 258
333 338 331 327 328 330 332 333 330 327 330 332 326 323 327 335 338 313 34 38 211 122 132 126 39 38 21 350 96 305 190 46 201 326 210 17 245 295 240 243 166 181 198 258 216 144 152 140 136 146 170 146 73 336
333 332 331 327 326 329 331 326 326 329 329 327 321 322 328 330 331 313 15 9 292 65 118 91 75 48 1 15 338 280 20 103 113 254 228 205 254 235 3 11 272 30 166 169 139 167 160 179 181 176 184 222 279 318
332 330 329 324 327 329 325 327 327 325 327 323 321 324 325 322 320 290 52 34 23 315 68 115 137 67 54 67 82 96 118 179 184 176 214 91 97 206 82 269 220 187 138 230 15 138 230 145 188 187 226 321 358 338
327 327 326 323 328 323 325 330 322 324 326 322 325 324 321 317 304 227 171 83 13 327 226 131 105 113 92 89 79 70 73 55 38 54 85 102 69 281 232 298 74 142 156 16 73 146 151 128 132 148 203 114 93 11
325 324 323 325 324 323 331 324 319 326 325 322 325 324 321 310 277 340 24 7 328 276 240 139 151 102 8 201 93 81 115 72 1 118 83 88 155 251 281 309 122 162 151 131 134 141 144 161 161 145 140 124 129 6
322 323 323 322 323 329 326 319 321 325 323 322 321 319 312 58 109 116 41 2 312 316 312 172 94 187 353 41 112 5 91 175 42 95 170 187 159 245 263 109 138 145 141 147 161 166 151 144 151 146 164 190 278 311
320 322 321 322 327 326 321 321 323 323 320 318 312 287 217 257 22 40 340 290 348 334 7 303 354 55 246 77 318 185 267 165 124 184 97 250 135 242 48 160 166 164 166 168 170 187 167 172 168 176 233 257 291 317
320 321 321 325 325 322 322 321 325 323 319 309 252 235 124 42 325 242 185 197 137 62 10 36 320 68 286 229 149 281 334 7 285 71 247 252 25 74 85 166 162 166 165 159 174 180 179 190 197 226 260 302 303 298
321 320 322 322 321 321 319 325 327 327 286 10 9 40 1 330 236 318 77 352 358 133 22 37 9 331 63 309 4 5 358 306 255 92 288 343 37 52 131 156 158 165 170 188 207 188 194 212 218 239 262 280 288 266
320 318 316 319 320 317 318 328 332 337 20 1 319 249 251 354 34 38 42 84 8 47 30 345 13 346 23 292 269 114 264 264 27 86 279 304 41 14 162 162 161 175 189 201 205 211 202 218 216 227 277 282 272 274
316 315 314 315 315 312 323 328 340 300 265 216 242 57 23 34 46 21 122 113 94 5 23 345 331 333 190 224 258 261 266 44 291 246 16 49 2 10 183 176 175 185 194 205 210 229 212 197 192 218 244 252 261 274
313 311 312 313 307 323 327 330 339 266 272 22 28 15 7 77 56 31 40 44 56 336 350 328 289 316 355 244 340 245 70 263 249 300 45 28 1 341 199 205 197 202 213 224 229 226 213 204 210 218 232 249 258 271
315 314 314 307 326 334 332 329 319 248 331 54 30 50 68 65 76 52 17 293 51 328 318 314 250 256 212 256 327 339 221 316 12 35 5 13 355 347 256 227 236 239 228 238 243 236 227 221 228 237 238 245 256 267
319 307 342 344 338 330 325 308 224 279 69 47 46 132 111 228 123 190 351 347 18 316 271 239 269 257 109 316 240 4 315 18 31 12 10 6 13 1 332 284 277 285 277 269 267 251 240 235 248 258 255 252 258 262
313 332 351 342 334 315 303 304 325 44 43 92 90 52 27 37 23 28 354 1 346 277 10 305 287 34 290 1 55 3 26 7 3 7 19 21 356 351 338 306 288 284 281 281 276 249 243 236 251 255 256 260 260 261
270 327 341 337 337 306 22 4 35 51 82 80 139 79 24 3 351 79 16 0 312 353 312 31 303 28 17 15 36 37 7 350 1 356 349 356 338 330 317 310 306 298 288 277 259 253 243 247 243 249 254 261 267 264
295 303 307 311 332 314 348 63 331 81 63 65 88 112 300 347 2 295 295 356 319 315 283 236 56 32 46 39 360 17 12 7 354 352 331 314 313 316 313 306 297 289 286 276 261 252 256 248 254 273 272 268 269 274
284 270 285 301 271 303 45 71 283 23 88 50 227 319 323 355 356 302 305 336 296 252 191 97 59 62 50 65 46 34 14 350 334 338 351 349 338 323 323 322 313 318 292 279 268 250 258 256 247 256 256 259 267 266
305 7 329 297 355 1 25 349 86 19 357 283 19 310 355 246 261 9 1 336 237 355 120 87 111 100 77 74 45 275 255 309 324 323 326 321 351 314 313 318 319 310 299 297 282 289 261 266 267 274 266 270 256 257
353 327 304 327 340 22 83 35 340 19 261 1 259 311 355 61 27 30 322 227 54 44 13 13 73 136 187 218 232 239 308 285 283 290 245 271 299 332 325 319 325 334 330 315 302 291 281 275 278 291 288 284 273 267
298 264 280 317 314 63 218 278 267 30 282 37 246 216 136 51 38 296 212 43 75 40 334 324 17 321 311 302 269 269 266 288 289 323 328 325 321 312 321 331 325 324 313 319 317 301 304 308 280 281 303 289 276 280
171 347 360 17 4 29 286 71 319 321 258 242 342 340 58 4 327 255 351 81 48 54 100 83 276 283 248 236 262 316 335 333 298 293 319 318 314 328 326 314 309 304 299 307 307 306 310 311 307 301 306 303 295 288
354 354 1 316 98 303 29 47 25 360 46 19 304 275 55 303 279 292 268 87 59 68 54 9 295 301 308 309 315 322 334 291 306 310 311 307 306 293 299 313 321 318 316 291 282 297 305 310 313 310 309 304 305 299
68 34 39 8 57 348 12 360 30 359 330 315 13 347 288 282 265 249 87 84 68 17 354 341 331 318 318 329 323 326 346 348 320 293 297 312 324 322 323 322 318 320 349 346 332 317 308 304 304 307 303 306 301 298
59 76 78 38 317 287 239 74 327 293 318 341 3 328 298 276 290 82 65 86 336 9 336 321 313 306 312 320 327 330 327 317 309 309 318 334 3 30 7 355 346 349 334 329 334 332 324 318 314 309 305 304 303 302
21 352 353 20 345 354 311 304 300 337 55 24 296 301 303 293 304 27 24 19 346 327 314 314 345 350 335 344 2 6 12 354 1 14 7 61 33 33 8 360 359 323 343 1 357 353 355 344 335 330 326 323 319 320
202 47 293 284 285 241 269 310 316 53 18 315 303 297 281 313 24 347 1 343 341 343 354 358 15 353 57 83 45 36 30 19 22 26 20 3 355 0 358 350 345 344 345 340 342 339 349 343 325 328 328 322 325 335
98 342 287 269 282 272 131 325 308 320 283 304 300 284 276 270 78 16 10 6 20 34 39 31 30 40 41 33 44 46 45 28 28 20 358 347 340 337 338 336 337 341 343 342 337 336 339 335 331 336 335 335 333 340
315 259 253 258 275 313 342 327 286 258 271 277 284 286 289 333 117 59 44 41 52 48 43 41 41 29 21 22 18 5 359 5 13 5 1 335 341 344 340 332 330 328 331 331 327 324 326 327 328 327 327 328 326 323
257 266 291 287 309 340 303 283 293 292 290 289 294 286 238 227 173 99 17 27 68 65 40 25 18 12 360 343 351 338 305 325 339 354 356 349 342 340 333 324 323 325 323 322 319 319 323 322 319 320 320 319 317 316
260 250 265 277 274 287 315 316 297 297 285 281 292 296 297 328 88 105 91 44 51 46 29 11 1 356 353 334 314 349 335 347 351 304 277 278 292 318 324 330 330 327 321 318 318 318 318 316 318 318 321 323 327 321